Time,TemperatureF,DewpointF,PressureIn,WindDirection,WindDirectionDegrees,WindSpeedMPH,WindSpeedGustMPH,Humidity,HourlyPrecipIn,Conditions,Clouds,dailyrainin,SoftwareType,DateUTC
2013-02-27 00:00:00,40.0,36.4,30.05,North,0,0.0,0.0,87,0.00,,,0.00,WUHU216HW,2013-02-27 08:00:00,
2013-02-27 00:05:00,39.8,36.5,30.05,North,0,0.0,0.0,88,0.00,,,0.00,WUHU216HW,2013-02-27 08:05:00,
2013-02-27 00:10:00,39.8,36.5,30.05,North,0,0.0,0.0,88,0.00,,,0.00,WUHU216HW,2013-02-27 08:10:00,
2013-02-27 00:15:00,39.8,36.5,30.05,North,0,0.0,0.0,88,0.00,,,0.00,WUHU216HW,2013-02-27 08:15:00,
2013-02-27 00:20:00,39.8,36.5,30.05,North,0,0.0,0.0,88,0.00,,,0.00,WUHU216HW,2013-02-27 08:20:00,
2013-02-27 00:25:00,39.8,36.5,30.05,North,0,0.0,0.0,88,0.00,,,0.00,WUHU216HW,2013-02-27 08:25:00,
2013-02-27 00:30:00,39.8,36.8,30.05,North,0,0.0,0.0,89,0.00,,,0.00,WUHU216HW,2013-02-27 08:30:00,
2013-02-27 00:35:00,39.8,36.8,30.06,North,0,0.0,0.0,89,0.00,,,0.00,WUHU216HW,2013-02-27 08:35:00,
2013-02-27 00:40:00,39.8,36.8,30.06,North,0,0.0,0.0,89,0.00,,,0.00,WUHU216HW,2013-02-27 08:40:00,
2013-02-27 00:45:00,39.8,36.8,30.06,North,0,0.0,0.0,89,0.00,,,0.00,WUHU216HW,2013-02-27 08:45:00,
2013-02-27 00:50:00,40.0,37.3,30.06,North,0,0.0,0.0,90,0.00,,,0.00,WUHU216HW,2013-02-27 08:50:00,
2013-02-27 00:55:00,40.0,37.0,30.06,North,0,0.0,0.0,89,0.00,,,0.00,WUHU216HW,2013-02-27 08:55:00,
2013-02-27 01:00:00,40.1,37.2,30.06,North,0,0.0,0.0,89,0.00,,,0.00,WUHU216HW,2013-02-27 09:00:00,
2013-02-27 01:05:00,40.1,36.8,30.06,North,0,0.0,0.0,88,0.00,,,0.00,WUHU216HW,2013-02-27 09:05:00,
2013-02-27 01:10:00,40.0,36.6,30.06,North,0,0.0,0.0,88,0.00,,,0.00,WUHU216HW,2013-02-27 09:10:00,
2013-02-27 01:15:00,40.0,36.6,30.06,North,0,0.0,0.0,88,0.00,,,0.00,WUHU216HW,2013-02-27 09:15:00,
2013-02-27 01:20:00,40.0,36.6,30.06,North,0,0.0,0.0,88,0.00,,,0.00,WUHU216HW,2013-02-27 09:20:00,
2013-02-27 01:25:00,40.0,36.6,30.06,North,0,0.0,0.0,88,0.00,,,0.00,WUHU216HW,2013-02-27 09:25:00,
2013-02-27 01:30:00,40.1,36.8,30.06,North,0,0.0,0.0,88,0.00,,,0.00,WUHU216HW,2013-02-27 09:30:00,
2013-02-27 01:35:00,40.1,36.8,30.06,North,0,0.0,0.0,88,0.00,,,0.00,WUHU216HW,2013-02-27 09:35:00,
2013-02-27 01:40:00,40.1,36.8,30.06,North,0,0.0,0.0,88,0.00,,,0.00,WUHU216HW,2013-02-27 09:40:00,
2013-02-27 01:45:00,40.3,37.0,30.06,North,0,0.0,0.0,88,0.00,,,0.00,WUHU216HW,2013-02-27 09:45:00,
2013-02-27 01:50:00,40.5,36.9,30.06,North,0,0.0,0.0,87,0.00,,,0.00,WUHU216HW,2013-02-27 09:50:00,
2013-02-27 01:55:00,40.5,36.9,30.06,North,0,0.0,0.0,87,0.00,,,0.00,WUHU216HW,2013-02-27 09:55:00,
2013-02-27 02:00:00,40.7,37.1,30.06,North,0,0.0,0.0,87,0.00,,,0.00,WUHU216HW,2013-02-27 10:00:00,
2013-02-27 02:05:00,40.7,37.1,30.06,North,0,0.0,0.0,87,0.00,,,0.00,WUHU216HW,2013-02-27 10:05:00,
2013-02-27 02:10:00,40.7,37.1,30.05,North,0,0.0,0.0,87,0.00,,,0.00,WUHU216HW,2013-02-27 10:10:00,
2013-02-27 02:15:00,40.7,37.1,30.05,North,0,0.0,0.0,87,0.00,,,0.00,WUHU216HW,2013-02-27 10:15:00,
2013-02-27 02:20:00,40.5,36.9,30.05,North,0,0.0,0.0,87,0.00,,,0.00,WUHU216HW,2013-02-27 10:20:00,
2013-02-27 02:25:00,40.3,36.7,30.05,North,0,0.0,0.0,87,0.00,,,0.00,WUHU216HW,2013-02-27 10:25:00,
2013-02-27 02:30:00,40.0,36.4,30.05,North,0,0.0,0.0,87,0.00,,,0.00,WUHU216HW,2013-02-27 10:30:00,
2013-02-27 02:35:00,40.0,36.4,30.05,North,0,0.0,0.0,87,0.00,,,0.00,WUHU216HW,2013-02-27 10:35:00,
2013-02-27 02:40:00,39.8,36.2,30.05,North,0,0.0,0.0,87,0.00,,,0.00,WUHU216HW,2013-02-27 10:40:00,
2013-02-27 02:45:00,39.8,36.2,30.05,North,0,0.0,0.0,87,0.00,,,0.00,WUHU216HW,2013-02-27 10:45:00,
2013-02-27 02:50:00,39.6,36.0,30.05,North,0,0.0,0.0,87,0.00,,,0.00,WUHU216HW,2013-02-27 10:50:00,
2013-02-27 02:55:00,39.6,36.0,30.05,North,0,0.0,0.0,87,0.00,,,0.00,WUHU216HW,2013-02-27 10:55:00,
2013-02-27 03:00:00,39.4,35.8,30.05,North,0,0.0,0.0,87,0.00,,,0.00,WUHU216HW,2013-02-27 11:00:00,
2013-02-27 03:05:00,39.2,36.0,30.05,North,0,0.0,0.0,88,0.00,,,0.00,WUHU216HW,2013-02-27 11:05:00,
2013-02-27 03:10:00,39.2,36.0,30.05,North,0,0.0,0.0,88,0.00,,,0.00,WUHU216HW,2013-02-27 11:10:00,
2013-02-27 03:15:00,39.1,35.8,30.05,North,0,0.0,0.0,88,0.00,,,0.00,WUHU216HW,2013-02-27 11:15:00,
2013-02-27 03:20:00,39.1,36.1,30.05,North,0,0.0,0.0,89,0.00,,,0.00,WUHU216HW,2013-02-27 11:20:00,
2013-02-27 03:25:00,39.2,36.3,30.05,North,0,0.0,0.0,89,0.00,,,0.00,WUHU216HW,2013-02-27 11:25:00,
2013-02-27 03:30:00,39.2,36.3,30.05,North,0,0.0,0.0,89,0.00,,,0.00,WUHU216HW,2013-02-27 11:30:00,
2013-02-27 03:35:00,39.2,36.3,30.05,North,0,0.0,0.0,89,0.00,,,0.00,WUHU216HW,2013-02-27 11:35:00,
2013-02-27 03:40:00,39.2,36.0,30.05,North,0,0.0,0.0,88,0.00,,,0.00,WUHU216HW,2013-02-27 11:40:00,
2013-02-27 03:45:00,39.2,36.3,30.05,North,0,0.0,0.0,89,0.00,,,0.00,WUHU216HW,2013-02-27 11:45:00,
2013-02-27 03:50:00,39.1,36.1,30.06,North,0,0.0,0.0,89,0.00,,,0.00,WUHU216HW,2013-02-27 11:50:00,
2013-02-27 03:55:00,39.1,36.1,30.05,North,0,0.0,0.0,89,0.00,,,0.00,WUHU216HW,2013-02-27 11:55:00,
2013-02-27 04:00:00,39.1,36.1,30.05,North,0,0.0,0.0,89,0.00,,,0.00,WUHU216HW,2013-02-27 12:00:00,
2013-02-27 04:05:00,39.1,36.1,30.05,North,0,0.0,0.0,89,0.00,,,0.00,WUHU216HW,2013-02-27 12:05:00,
2013-02-27 04:10:00,39.1,36.4,30.05,North,0,0.0,0.0,90,0.00,,,0.00,WUHU216HW,2013-02-27 12:10:00,
2013-02-27 04:15:00,39.1,36.4,30.05,North,0,0.0,0.0,90,0.00,,,0.00,WUHU216HW,2013-02-27 12:15:00,
2013-02-27 04:20:00,39.1,36.4,30.05,North,0,0.0,0.0,90,0.00,,,0.00,WUHU216HW,2013-02-27 12:20:00,
2013-02-27 04:25:00,39.2,36.5,30.05,North,0,0.0,0.0,90,0.00,,,0.00,WUHU216HW,2013-02-27 12:25:00,
2013-02-27 04:30:00,39.2,36.5,30.05,North,0,0.0,0.0,90,0.00,,,0.00,WUHU216HW,2013-02-27 12:30:00,
2013-02-27 04:35:00,39.2,36.5,30.05,North,0,0.0,0.0,90,0.00,,,0.00,WUHU216HW,2013-02-27 12:35:00,
2013-02-27 04:40:00,39.4,36.7,30.05,North,0,0.0,0.0,90,0.00,,,0.00,WUHU216HW,2013-02-27 12:40:00,
2013-02-27 04:45:00,39.6,36.9,30.05,North,0,0.0,0.0,90,0.00,,,0.00,WUHU216HW,2013-02-27 12:45:00,
2013-02-27 04:50:00,39.6,36.9,30.05,North,0,0.0,0.0,90,0.00,,,0.00,WUHU216HW,2013-02-27 12:50:00,
2013-02-27 04:55:00,39.4,36.5,30.05,North,0,0.0,0.0,89,0.00,,,0.00,WUHU216HW,2013-02-27 12:55:00,
2013-02-27 05:00:00,39.4,36.5,30.05,North,0,0.0,0.0,89,0.00,,,0.00,WUHU216HW,2013-02-27 13:00:00,
2013-02-27 05:05:00,39.4,36.5,30.05,North,0,0.0,0.0,89,0.00,,,0.00,WUHU216HW,2013-02-27 13:05:00,
2013-02-27 05:10:00,39.4,36.5,30.05,North,0,0.0,0.0,89,0.00,,,0.00,WUHU216HW,2013-02-27 13:10:00,
2013-02-27 05:15:00,39.2,36.3,30.05,North,0,0.0,0.0,89,0.00,,,0.00,WUHU216HW,2013-02-27 13:15:00,
2013-02-27 05:20:00,39.2,36.3,30.05,North,0,0.0,0.0,89,0.00,,,0.00,WUHU216HW,2013-02-27 13:20:00,
2013-02-27 05:25:00,39.4,36.5,30.05,North,0,0.0,0.0,89,0.00,,,0.00,WUHU216HW,2013-02-27 13:25:00,
2013-02-27 05:30:00,39.4,36.7,30.05,North,0,0.0,0.0,90,0.00,,,0.00,WUHU216HW,2013-02-27 13:30:00,
2013-02-27 05:35:00,39.4,36.5,30.06,North,0,0.0,0.0,89,0.00,,,0.00,WUHU216HW,2013-02-27 13:35:00,
2013-02-27 05:40:00,39.4,36.5,30.06,North,0,0.0,0.0,89,0.00,,,0.00,WUHU216HW,2013-02-27 13:40:00,
2013-02-27 05:45:00,39.2,36.3,30.06,North,0,0.0,0.0,89,0.00,,,0.00,WUHU216HW,2013-02-27 13:45:00,
2013-02-27 05:50:00,39.4,36.7,30.06,North,0,0.0,0.0,90,0.00,,,0.00,WUHU216HW,2013-02-27 13:50:00,
2013-02-27 05:55:00,39.4,36.7,30.06,North,0,0.0,0.0,90,0.00,,,0.00,WUHU216HW,2013-02-27 13:55:00,
2013-02-27 06:00:00,39.6,36.9,30.06,North,0,0.0,0.0,90,0.00,,,0.00,WUHU216HW,2013-02-27 14:00:00,
2013-02-27 06:05:00,39.8,36.8,30.07,North,0,0.0,0.0,89,0.00,,,0.00,WUHU216HW,2013-02-27 14:05:00,
2013-02-27 06:10:00,39.6,36.6,30.07,North,0,0.0,0.0,89,0.00,,,0.00,WUHU216HW,2013-02-27 14:10:00,
2013-02-27 06:15:00,39.6,36.6,30.07,North,0,0.0,0.0,89,0.00,,,0.00,WUHU216HW,2013-02-27 14:15:00,
2013-02-27 06:20:00,39.4,36.5,30.07,North,0,0.0,0.0,89,0.00,,,0.00,WUHU216HW,2013-02-27 14:20:00,
2013-02-27 06:25:00,39.4,36.5,30.07,North,0,0.0,0.0,89,0.00,,,0.00,WUHU216HW,2013-02-27 14:25:00,
2013-02-27 06:30:00,39.4,36.7,30.08,North,0,0.0,0.0,90,0.00,,,0.00,WUHU216HW,2013-02-27 14:30:00,
2013-02-27 06:35:00,39.4,36.7,30.08,North,0,0.0,0.0,90,0.00,,,0.00,WUHU216HW,2013-02-27 14:35:00,
2013-02-27 06:40:00,39.4,36.7,30.08,North,0,0.0,0.0,90,0.00,,,0.00,WUHU216HW,2013-02-27 14:40:00,
2013-02-27 06:45:00,39.4,36.7,30.09,North,0,0.0,0.0,90,0.00,,,0.00,WUHU216HW,2013-02-27 14:45:00,
2013-02-27 06:50:00,39.4,36.7,30.09,North,0,0.0,0.0,90,0.00,,,0.00,WUHU216HW,2013-02-27 14:50:00,
2013-02-27 06:55:00,39.4,36.7,30.09,North,0,0.0,0.0,90,0.00,,,0.00,WUHU216HW,2013-02-27 14:55:00,
2013-02-27 07:00:00,39.4,36.7,30.09,North,0,0.0,0.0,90,0.00,,,0.00,WUHU216HW,2013-02-27 15:00:00,
2013-02-27 07:05:00,39.4,36.7,30.09,North,0,0.0,0.0,90,0.00,,,0.00,WUHU216HW,2013-02-27 15:05:00,
2013-02-27 07:10:00,39.4,36.7,30.09,North,0,0.0,0.0,90,0.00,,,0.00,WUHU216HW,2013-02-27 15:10:00,
2013-02-27 07:15:00,39.6,36.9,30.09,North,0,0.0,0.0,90,0.00,,,0.00,WUHU216HW,2013-02-27 15:15:00,
2013-02-27 07:20:00,40.0,37.3,30.09,North,0,0.0,0.0,90,0.00,,,0.00,WUHU216HW,2013-02-27 15:20:00,
2013-02-27 07:25:00,40.0,37.3,30.09,North,0,0.0,0.0,90,0.00,,,0.00,WUHU216HW,2013-02-27 15:25:00,
2013-02-27 07:30:00,40.0,37.3,30.08,North,0,0.0,0.0,90,0.00,,,0.00,WUHU216HW,2013-02-27 15:30:00,
2013-02-27 07:35:00,40.0,37.3,30.09,North,0,0.0,0.0,90,0.00,,,0.00,WUHU216HW,2013-02-27 15:35:00,
2013-02-27 07:40:00,40.0,37.3,30.09,North,0,0.0,0.0,90,0.00,,,0.00,WUHU216HW,2013-02-27 15:40:00,
2013-02-27 07:45:00,40.0,37.3,30.09,North,0,0.0,0.0,90,0.00,,,0.00,WUHU216HW,2013-02-27 15:45:00,
2013-02-27 07:50:00,40.0,37.3,30.09,North,0,0.0,0.0,90,0.00,,,0.00,WUHU216HW,2013-02-27 15:50:00,
2013-02-27 07:55:00,40.1,37.4,30.08,North,0,0.0,0.0,90,0.00,,,0.00,WUHU216HW,2013-02-27 15:55:00,
2013-02-27 08:00:00,40.3,37.6,30.08,North,0,0.0,0.0,90,0.00,,,0.00,WUHU216HW,2013-02-27 16:00:00,
2013-02-27 08:05:00,40.7,38.0,30.08,North,0,0.0,0.0,90,0.00,,,0.00,WUHU216HW,2013-02-27 16:05:00,
2013-02-27 08:10:00,40.9,37.3,30.08,North,0,0.0,0.0,87,0.00,,,0.00,WUHU216HW,2013-02-27 16:10:00,
2013-02-27 08:15:00,41.2,37.6,30.08,North,0,0.0,0.0,87,0.00,,,0.00,WUHU216HW,2013-02-27 16:15:00,
2013-02-27 08:20:00,41.4,37.2,30.09,North,0,0.0,0.0,85,0.00,,,0.00,WUHU216HW,2013-02-27 16:20:00,
2013-02-27 08:25:00,41.8,37.8,30.09,North,0,0.0,0.0,86,0.00,,,0.00,WUHU216HW,2013-02-27 16:25:00,
2013-02-27 08:30:00,42.1,38.2,30.09,North,0,0.0,0.0,86,0.00,,,0.00,WUHU216HW,2013-02-27 16:30:00,
2013-02-27 08:35:00,42.5,38.5,30.09,North,0,0.0,0.0,86,0.00,,,0.00,WUHU216HW,2013-02-27 16:35:00,
2013-02-27 08:40:00,42.8,38.6,30.09,North,0,0.0,0.0,85,0.00,,,0.00,WUHU216HW,2013-02-27 16:40:00,
2013-02-27 08:45:00,43.0,39.1,30.09,North,0,0.0,0.0,86,0.00,,,0.00,WUHU216HW,2013-02-27 16:45:00,
2013-02-27 08:50:00,43.2,39.2,30.09,North,0,0.0,0.0,86,0.00,,,0.00,WUHU216HW,2013-02-27 16:50:00,
2013-02-27 08:55:00,43.6,39.1,30.09,North,0,0.0,0.0,84,0.00,,,0.00,WUHU216HW,2013-02-27 16:55:00,
2013-02-27 09:00:00,43.6,39.1,30.08,North,0,0.0,0.0,84,0.00,,,0.00,WUHU216HW,2013-02-27 17:00:00,
2013-02-27 09:05:00,44.1,39.0,30.08,North,0,0.0,0.0,82,0.00,,,0.00,WUHU216HW,2013-02-27 17:05:00,
2013-02-27 09:10:00,44.3,38.8,30.08,North,0,0.0,0.0,81,0.00,,,0.00,WUHU216HW,2013-02-27 17:10:00,
2013-02-27 09:15:00,44.5,38.3,30.08,North,0,0.0,0.0,79,0.00,,,0.00,WUHU216HW,2013-02-27 17:15:00,
2013-02-27 09:20:00,44.6,38.9,30.08,North,0,0.0,0.0,80,0.00,,,0.00,WUHU216HW,2013-02-27 17:20:00,
2013-02-27 09:25:00,45.0,38.5,30.08,North,0,0.0,0.0,78,0.00,,,0.00,WUHU216HW,2013-02-27 17:25:00,
2013-02-27 09:30:00,45.4,39.2,30.08,North,0,0.0,0.0,79,0.00,,,0.00,WUHU216HW,2013-02-27 17:30:00,
2013-02-27 09:35:00,45.7,39.2,30.08,North,0,0.0,0.0,78,0.00,,,0.00,WUHU216HW,2013-02-27 17:35:00,
2013-02-27 09:40:00,46.1,39.6,30.08,North,0,0.0,0.0,78,0.00,,,0.00,WUHU216HW,2013-02-27 17:40:00,
2013-02-27 09:45:00,46.6,39.8,30.08,North,0,0.0,0.0,77,0.00,,,0.00,WUHU216HW,2013-02-27 17:45:00,
2013-02-27 09:50:00,47.5,39.2,30.07,North,0,0.0,0.0,73,0.00,,,0.00,WUHU216HW,2013-02-27 17:50:00,
2013-02-27 09:55:00,49.0,39.3,30.07,North,0,0.0,0.0,69,0.00,,,0.00,WUHU216HW,2013-02-27 17:55:00,
2013-02-27 10:00:00,48.8,40.2,30.07,North,0,0.0,0.0,72,0.00,,,0.00,WUHU216HW,2013-02-27 18:00:00,
2013-02-27 10:05:00,49.3,39.2,30.07,North,0,0.0,0.0,68,0.00,,,0.00,WUHU216HW,2013-02-27 18:05:00,
2013-02-27 10:10:00,50.6,42.0,30.06,North,0,0.0,0.0,72,0.00,,,0.00,WUHU216HW,2013-02-27 18:10:00,
2013-02-27 10:15:00,51.7,41.9,30.06,North,0,0.0,0.0,69,0.00,,,0.00,WUHU216HW,2013-02-27 18:15:00,
2013-02-27 10:20:00,51.7,40.7,30.06,North,0,0.0,0.0,66,0.00,,,0.00,WUHU216HW,2013-02-27 18:20:00,
2013-02-27 10:25:00,51.3,39.1,30.06,North,0,0.0,0.0,63,0.00,,,0.00,WUHU216HW,2013-02-27 18:25:00,
2013-02-27 10:30:00,51.1,41.0,30.06,North,0,0.0,0.0,68,0.00,,,0.00,WUHU216HW,2013-02-27 18:30:00,
2013-02-27 10:35:00,50.9,40.8,30.06,North,0,0.0,0.0,68,0.00,,,0.00,WUHU216HW,2013-02-27 18:35:00,
2013-02-27 10:40:00,50.9,40.8,30.06,North,0,0.0,0.0,68,0.00,,,0.00,WUHU216HW,2013-02-27 18:40:00,
2013-02-27 10:45:00,50.8,40.2,30.06,North,0,0.0,0.0,67,0.00,,,0.00,WUHU216HW,2013-02-27 18:45:00,
2013-02-27 10:50:00,50.8,40.6,30.06,North,0,0.0,0.0,68,0.00,,,0.00,WUHU216HW,2013-02-27 18:50:00,
2013-02-27 10:55:00,51.1,41.0,30.05,North,0,0.0,0.0,68,0.00,,,0.00,WUHU216HW,2013-02-27 18:55:00,
2013-02-27 11:00:00,51.3,41.1,30.06,North,0,0.0,0.0,68,0.00,,,0.00,WUHU216HW,2013-02-27 19:00:00,
2013-02-27 11:05:00,51.5,41.3,30.06,North,0,0.0,0.0,68,0.00,,,0.00,WUHU216HW,2013-02-27 19:05:00,
2013-02-27 11:10:00,51.5,40.9,30.06,North,0,0.0,0.0,67,0.00,,,0.00,WUHU216HW,2013-02-27 19:10:00,
2013-02-27 11:15:00,51.5,41.3,30.07,North,0,0.0,0.0,68,0.00,,,0.00,WUHU216HW,2013-02-27 19:15:00,
2013-02-27 11:20:00,51.8,41.2,30.07,North,0,0.0,0.0,67,0.00,,,0.00,WUHU216HW,2013-02-27 19:20:00,
2013-02-27 11:25:00,52.0,42.2,30.07,North,0,0.0,0.0,69,0.00,,,0.00,WUHU216HW,2013-02-27 19:25:00,
2013-02-27 11:30:00,52.4,42.1,30.07,North,0,0.0,0.0,68,0.00,,,0.00,WUHU216HW,2013-02-27 19:30:00,
2013-02-27 11:35:00,52.2,42.4,30.07,North,0,0.0,0.0,69,0.00,,,0.00,WUHU216HW,2013-02-27 19:35:00,
2013-02-27 11:40:00,52.2,42.4,30.08,North,0,0.0,0.0,69,0.00,,,0.00,WUHU216HW,2013-02-27 19:40:00,
2013-02-27 11:45:00,52.2,42.9,30.08,North,0,0.0,0.0,70,0.00,,,0.00,WUHU216HW,2013-02-27 19:45:00,
2013-02-27 11:50:00,52.4,42.9,30.08,North,0,0.0,0.0,70,0.00,,,0.00,WUHU216HW,2013-02-27 19:50:00,
2013-02-27 11:55:00,52.4,42.9,30.08,North,0,0.0,0.0,70,0.00,,,0.00,WUHU216HW,2013-02-27 19:55:00,
2013-02-27 12:00:00,52.4,42.9,30.08,North,0,0.0,0.0,70,0.00,,,0.00,WUHU216HW,2013-02-27 20:00:00,
2013-02-27 12:05:00,52.2,43.1,30.08,North,0,0.0,0.0,71,0.00,,,0.00,WUHU216HW,2013-02-27 20:05:00,
2013-02-27 12:10:00,52.2,43.1,30.08,North,0,0.0,0.0,71,0.00,,,0.00,WUHU216HW,2013-02-27 20:10:00,
2013-02-27 12:15:00,52.2,43.1,30.08,North,0,0.0,0.0,71,0.00,,,0.00,WUHU216HW,2013-02-27 20:15:00,
2013-02-27 12:20:00,52.2,43.1,30.08,North,0,0.0,0.0,71,0.00,,,0.00,WUHU216HW,2013-02-27 20:20:00,
2013-02-27 12:25:00,52.0,42.7,30.08,North,0,0.0,0.0,70,0.00,,,0.00,WUHU216HW,2013-02-27 20:25:00,
2013-02-27 12:30:00,51.7,41.9,30.08,North,0,0.0,0.0,69,0.00,,,0.00,WUHU216HW,2013-02-27 20:30:00,
2013-02-27 12:35:00,51.5,42.1,30.08,North,0,0.0,0.0,70,0.00,,,0.00,WUHU216HW,2013-02-27 20:35:00,
2013-02-27 12:40:00,51.5,41.7,30.08,North,0,0.0,0.0,69,0.00,,,0.00,WUHU216HW,2013-02-27 20:40:00,
2013-02-27 12:45:00,51.1,41.8,30.09,North,0,0.0,0.0,70,0.00,,,0.00,WUHU216HW,2013-02-27 20:45:00,
2013-02-27 12:50:00,50.8,41.1,30.08,North,0,0.0,0.0,69,0.00,,,0.00,WUHU216HW,2013-02-27 20:50:00,
2013-02-27 12:55:00,50.6,41.6,30.08,North,0,0.0,0.0,71,0.00,,,0.00,WUHU216HW,2013-02-27 20:55:00,
2013-02-27 13:00:00,50.6,41.6,30.08,North,0,0.0,0.0,71,0.00,,,0.00,WUHU216HW,2013-02-27 21:00:00,
2013-02-27 13:05:00,50.4,41.8,30.08,North,0,0.0,0.0,72,0.00,,,0.00,WUHU216HW,2013-02-27 21:05:00,
2013-02-27 13:10:00,50.2,41.6,30.08,North,0,0.0,0.0,72,0.00,,,0.00,WUHU216HW,2013-02-27 21:10:00,
2013-02-27 13:15:00,50.2,41.9,30.08,North,0,0.0,0.0,73,0.00,,,0.00,WUHU216HW,2013-02-27 21:15:00,
2013-02-27 13:20:00,50.2,41.9,30.08,North,0,0.0,0.0,73,0.00,,,0.00,WUHU216HW,2013-02-27 21:20:00,
2013-02-27 13:25:00,50.4,42.0,30.08,North,0,0.0,0.0,73,0.00,,,0.00,WUHU216HW,2013-02-27 21:25:00,
2013-02-27 13:30:00,50.4,42.4,30.08,North,0,0.0,0.0,74,0.00,,,0.00,WUHU216HW,2013-02-27 21:30:00,
2013-02-27 13:35:00,50.6,42.2,30.08,North,0,0.0,0.0,73,0.00,,,0.00,WUHU216HW,2013-02-27 21:35:00,
2013-02-27 13:40:00,50.4,42.0,30.07,North,0,0.0,0.0,73,0.00,,,0.00,WUHU216HW,2013-02-27 21:40:00,
2013-02-27 13:45:00,50.4,42.0,30.07,North,0,0.0,0.0,73,0.00,,,0.00,WUHU216HW,2013-02-27 21:45:00,
2013-02-27 13:50:00,50.4,42.4,30.07,North,0,0.0,0.0,74,0.00,,,0.00,WUHU216HW,2013-02-27 21:50:00,
2013-02-27 13:55:00,50.2,41.9,30.07,North,0,0.0,0.0,73,0.00,,,0.00,WUHU216HW,2013-02-27 21:55:00,
2013-02-27 14:00:00,50.0,41.7,30.07,North,0,0.0,0.0,73,0.00,,,0.00,WUHU216HW,2013-02-27 22:00:00,
2013-02-27 14:05:00,49.9,41.9,30.07,North,0,0.0,0.0,74,0.00,,,0.00,WUHU216HW,2013-02-27 22:05:00,
2013-02-27 14:10:00,49.7,41.7,30.07,North,0,0.0,0.0,74,0.00,,,0.00,WUHU216HW,2013-02-27 22:10:00,
2013-02-27 14:15:00,49.9,41.9,30.07,North,0,0.0,0.0,74,0.00,,,0.00,WUHU216HW,2013-02-27 22:15:00,
2013-02-27 14:20:00,49.9,41.9,30.07,North,0,0.0,0.0,74,0.00,,,0.00,WUHU216HW,2013-02-27 22:20:00,
2013-02-27 14:25:00,49.7,41.3,30.07,North,0,0.0,0.0,73,0.00,,,0.00,WUHU216HW,2013-02-27 22:25:00,
2013-02-27 14:30:00,49.9,42.2,30.06,North,0,0.0,0.0,75,0.00,,,0.00,WUHU216HW,2013-02-27 22:30:00,
2013-02-27 14:35:00,49.9,41.9,30.06,North,0,0.0,0.0,74,0.00,,,0.00,WUHU216HW,2013-02-27 22:35:00,
2013-02-27 14:40:00,49.9,41.9,30.06,North,0,0.0,0.0,74,0.00,,,0.00,WUHU216HW,2013-02-27 22:40:00,
2013-02-27 14:45:00,50.0,42.4,30.06,North,0,0.0,0.0,75,0.00,,,0.00,WUHU216HW,2013-02-27 22:45:00,
2013-02-27 14:50:00,50.0,42.4,30.06,North,0,0.0,0.0,75,0.00,,,0.00,WUHU216HW,2013-02-27 22:50:00,
2013-02-27 14:55:00,50.0,42.0,30.06,North,0,0.0,0.0,74,0.00,,,0.00,WUHU216HW,2013-02-27 22:55:00,
2013-02-27 15:00:00,49.9,42.2,30.06,North,0,0.0,0.0,75,0.00,,,0.00,WUHU216HW,2013-02-27 23:00:00,
2013-02-27 15:05:00,49.9,42.2,30.06,North,0,0.0,0.0,75,0.00,,,0.00,WUHU216HW,2013-02-27 23:05:00,
2013-02-27 15:10:00,49.7,42.0,30.06,North,0,0.0,0.0,75,0.00,,,0.00,WUHU216HW,2013-02-27 23:10:00,
2013-02-27 15:15:00,49.5,41.5,30.05,North,0,0.0,0.0,74,0.00,,,0.00,WUHU216HW,2013-02-27 23:15:00,
2013-02-27 15:20:00,49.7,41.7,30.05,North,0,0.0,0.0,74,0.00,,,0.00,WUHU216HW,2013-02-27 23:20:00,
2013-02-27 15:25:00,49.5,41.9,30.05,North,0,0.0,0.0,75,0.00,,,0.00,WUHU216HW,2013-02-27 23:25:00,
2013-02-27 15:30:00,49.3,41.3,30.05,North,0,0.0,0.0,74,0.00,,,0.00,WUHU216HW,2013-02-27 23:30:00,
2013-02-27 15:35:00,49.3,41.7,30.05,North,0,0.0,0.0,75,0.00,,,0.00,WUHU216HW,2013-02-27 23:35:00,
2013-02-27 15:40:00,49.3,41.7,30.05,North,0,0.0,0.0,75,0.00,,,0.00,WUHU216HW,2013-02-27 23:40:00,
2013-02-27 15:45:00,49.3,41.7,30.05,North,0,0.0,0.0,75,0.00,,,0.00,WUHU216HW,2013-02-27 23:45:00,
2013-02-27 15:50:00,49.3,41.7,30.05,North,0,0.0,0.0,75,0.00,,,0.00,WUHU216HW,2013-02-27 23:50:00,
2013-02-27 15:55:00,49.3,42.0,30.05,North,0,0.0,0.0,76,0.00,,,0.00,WUHU216HW,2013-02-27 23:55:00,
2013-02-27 16:00:00,49.5,42.2,30.06,North,0,0.0,0.0,76,0.00,,,0.00,WUHU216HW,2013-02-28 00:00:00,
2013-02-27 16:05:00,49.5,42.2,30.06,North,0,0.0,0.0,76,0.00,,,0.00,WUHU216HW,2013-02-28 00:05:00,
2013-02-27 16:10:00,49.5,42.2,30.06,North,0,0.0,0.0,76,0.00,,,0.00,WUHU216HW,2013-02-28 00:10:00,
2013-02-27 16:15:00,49.3,42.0,30.06,North,0,0.0,0.0,76,0.00,,,0.00,WUHU216HW,2013-02-28 00:15:00,
2013-02-27 16:20:00,49.1,42.2,30.06,North,0,0.0,0.0,77,0.00,,,0.00,WUHU216HW,2013-02-28 00:20:00,
2013-02-27 16:25:00,49.0,42.0,30.06,North,0,0.0,0.0,77,0.00,,,0.00,WUHU216HW,2013-02-28 00:25:00,
2013-02-27 16:30:00,49.0,42.0,30.06,North,0,0.0,0.0,77,0.00,,,0.00,WUHU216HW,2013-02-28 00:30:00,
2013-02-27 16:35:00,49.0,42.3,30.06,North,0,0.0,0.0,78,0.00,,,0.00,WUHU216HW,2013-02-28 00:35:00,
2013-02-27 16:40:00,48.8,42.1,30.06,North,0,0.0,0.0,78,0.00,,,0.00,WUHU216HW,2013-02-28 00:40:00,
2013-02-27 16:45:00,48.8,42.1,30.05,North,0,0.0,0.0,78,0.00,,,0.00,WUHU216HW,2013-02-28 00:45:00,
2013-02-27 16:50:00,48.6,42.3,30.05,North,0,0.0,0.0,79,0.00,,,0.00,WUHU216HW,2013-02-28 00:50:00,
2013-02-27 16:55:00,48.6,42.3,30.06,North,0,0.0,0.0,79,0.00,,,0.00,WUHU216HW,2013-02-28 00:55:00,
2013-02-27 17:00:00,48.4,42.1,30.05,North,0,0.0,0.0,79,0.00,,,0.00,WUHU216HW,2013-02-28 01:00:00,
2013-02-27 17:05:00,48.4,42.5,30.05,North,0,0.0,0.0,80,0.00,,,0.00,WUHU216HW,2013-02-28 01:05:00,
2013-02-27 17:10:00,48.2,42.3,30.05,North,0,0.0,0.0,80,0.00,,,0.00,WUHU216HW,2013-02-28 01:10:00,
2013-02-27 17:15:00,48.2,42.3,30.05,North,0,0.0,0.0,80,0.00,,,0.00,WUHU216HW,2013-02-28 01:15:00,
2013-02-27 17:20:00,48.1,42.5,30.06,North,0,0.0,0.0,81,0.00,,,0.00,WUHU216HW,2013-02-28 01:20:00,
2013-02-27 17:25:00,47.9,42.3,30.05,North,0,0.0,0.0,81,0.00,,,0.00,WUHU216HW,2013-02-28 01:25:00,
2013-02-27 17:30:00,47.5,42.6,30.05,North,0,0.0,0.0,83,0.00,,,0.00,WUHU216HW,2013-02-28 01:30:00,
2013-02-27 17:35:00,47.2,42.6,30.05,North,0,0.0,0.0,84,0.00,,,0.00,WUHU216HW,2013-02-28 01:35:00,
2013-02-27 17:40:00,47.0,42.4,30.06,North,0,0.0,0.0,84,0.00,,,0.00,WUHU216HW,2013-02-28 01:40:00,
2013-02-27 17:45:00,46.8,42.2,30.05,North,0,0.0,0.0,84,0.00,,,0.00,WUHU216HW,2013-02-28 01:45:00,
2013-02-27 17:50:00,46.6,42.4,30.05,North,0,0.0,0.0,85,0.00,,,0.00,WUHU216HW,2013-02-28 01:50:00,
2013-02-27 17:55:00,46.6,42.4,30.05,North,0,0.0,0.0,85,0.00,,,0.00,WUHU216HW,2013-02-28 01:55:00,
2013-02-27 18:00:00,46.4,42.2,30.05,North,0,0.0,0.0,85,0.00,,,0.00,WUHU216HW,2013-02-28 02:00:00,
2013-02-27 18:05:00,46.4,42.2,30.05,North,0,0.0,0.0,85,0.00,,,0.00,WUHU216HW,2013-02-28 02:05:00,
2013-02-27 18:10:00,46.3,42.0,30.05,North,0,0.0,0.0,85,0.00,,,0.00,WUHU216HW,2013-02-28 02:10:00,
2013-02-27 18:15:00,46.1,41.9,30.05,North,0,0.0,0.0,85,0.00,,,0.00,WUHU216HW,2013-02-28 02:15:00,
2013-02-27 18:20:00,46.1,42.1,30.05,North,0,0.0,0.0,86,0.00,,,0.00,WUHU216HW,2013-02-28 02:20:00,
2013-02-27 18:25:00,45.9,42.3,30.05,North,0,0.0,0.0,87,0.00,,,0.00,WUHU216HW,2013-02-28 02:25:00,
2013-02-27 18:30:00,45.9,42.6,30.05,North,0,0.0,0.0,88,0.00,,,0.00,WUHU216HW,2013-02-28 02:30:00,
2013-02-27 18:35:00,45.9,42.9,30.05,North,0,0.0,0.0,89,0.00,,,0.00,WUHU216HW,2013-02-28 02:35:00,
2013-02-27 18:40:00,45.7,42.4,30.04,North,0,0.0,0.0,88,0.00,,,0.00,WUHU216HW,2013-02-28 02:40:00,
2013-02-27 18:45:00,45.7,42.4,30.04,North,0,0.0,0.0,88,0.00,,,0.00,WUHU216HW,2013-02-28 02:45:00,
2013-02-27 18:50:00,45.7,42.4,30.04,North,0,0.0,0.0,88,0.00,,,0.00,WUHU216HW,2013-02-28 02:50:00,
2013-02-27 18:55:00,45.5,42.2,30.04,North,0,0.0,0.0,88,0.00,,,0.00,WUHU216HW,2013-02-28 02:55:00,
2013-02-27 19:00:00,45.5,42.2,30.04,North,0,0.0,0.0,88,0.00,,,0.00,WUHU216HW,2013-02-28 03:00:00,
2013-02-27 19:05:00,45.4,42.4,30.03,North,0,0.0,0.0,89,0.00,,,0.00,WUHU216HW,2013-02-28 03:05:00,
2013-02-27 19:10:00,45.2,42.8,30.03,North,0,0.0,0.0,91,0.00,,,0.00,WUHU216HW,2013-02-28 03:10:00,
2013-02-27 19:15:00,45.2,42.8,30.03,North,0,0.0,0.0,91,0.00,,,0.00,WUHU216HW,2013-02-28 03:15:00,
2013-02-27 19:20:00,45.4,42.9,30.03,North,0,0.0,0.0,91,0.00,,,0.00,WUHU216HW,2013-02-28 03:20:00,
2013-02-27 19:25:00,45.7,43.0,30.03,North,0,0.0,0.0,90,0.00,,,0.00,WUHU216HW,2013-02-28 03:25:00,
2013-02-27 19:30:00,45.5,42.8,30.02,North,0,0.0,0.0,90,0.00,,,0.00,WUHU216HW,2013-02-28 03:30:00,
2013-02-27 19:35:00,45.5,42.8,30.02,North,0,0.0,0.0,90,0.00,,,0.00,WUHU216HW,2013-02-28 03:35:00,
2013-02-27 19:40:00,45.5,42.8,30.02,North,0,0.0,0.0,90,0.00,,,0.00,WUHU216HW,2013-02-28 03:40:00,
2013-02-27 19:45:00,45.5,42.8,30.02,North,0,0.0,0.0,90,0.00,,,0.00,WUHU216HW,2013-02-28 03:45:00,
2013-02-27 19:50:00,45.5,42.8,30.02,North,0,0.0,0.0,90,0.00,,,0.00,WUHU216HW,2013-02-28 03:50:00,
2013-02-27 19:55:00,45.5,42.6,30.03,North,0,0.0,0.0,89,0.00,,,0.00,WUHU216HW,2013-02-28 03:55:00,
2013-02-27 20:00:00,45.5,42.6,30.03,North,0,0.0,0.0,89,0.00,,,0.00,WUHU216HW,2013-02-28 04:00:00,
2013-02-27 20:05:00,45.4,42.4,30.03,North,0,0.0,0.0,89,0.00,,,0.00,WUHU216HW,2013-02-28 04:05:00,
2013-02-27 20:10:00,45.2,42.2,30.03,North,0,0.0,0.0,89,0.00,,,0.00,WUHU216HW,2013-02-28 04:10:00,
2013-02-27 20:15:00,45.0,42.0,30.02,North,0,0.0,0.0,89,0.00,,,0.00,WUHU216HW,2013-02-28 04:15:00,
2013-02-27 20:20:00,45.0,42.0,30.02,North,0,0.0,0.0,89,0.00,,,0.00,WUHU216HW,2013-02-28 04:20:00,
2013-02-27 20:25:00,45.0,42.0,30.02,North,0,0.0,0.0,89,0.00,,,0.00,WUHU216HW,2013-02-28 04:25:00,
2013-02-27 20:30:00,44.8,41.9,30.03,North,0,0.0,0.0,89,0.00,,,0.00,WUHU216HW,2013-02-28 04:30:00,
2013-02-27 20:35:00,44.8,42.1,30.03,North,0,0.0,0.0,90,0.00,,,0.00,WUHU216HW,2013-02-28 04:35:00,
2013-02-27 20:40:00,44.8,42.1,30.03,North,0,0.0,0.0,90,0.00,,,0.00,WUHU216HW,2013-02-28 04:40:00,
2013-02-27 20:45:00,44.8,41.9,30.03,North,0,0.0,0.0,89,0.00,,,0.00,WUHU216HW,2013-02-28 04:45:00,
2013-02-27 20:50:00,44.8,42.1,30.04,North,0,0.0,0.0,90,0.00,,,0.00,WUHU216HW,2013-02-28 04:50:00,
2013-02-27 20:55:00,44.6,41.9,30.04,North,0,0.0,0.0,90,0.00,,,0.00,WUHU216HW,2013-02-28 04:55:00,
2013-02-27 21:00:00,44.8,42.1,30.04,North,0,0.0,0.0,90,0.00,,,0.00,WUHU216HW,2013-02-28 05:00:00,
2013-02-27 21:05:00,44.8,42.4,30.04,North,0,0.0,0.0,91,0.00,,,0.00,WUHU216HW,2013-02-28 05:05:00,
2013-02-27 21:10:00,44.8,42.1,30.04,North,0,0.0,0.0,90,0.00,,,0.00,WUHU216HW,2013-02-28 05:10:00,
2013-02-27 21:15:00,44.8,42.1,30.04,North,0,0.0,0.0,90,0.00,,,0.00,WUHU216HW,2013-02-28 05:15:00,
2013-02-27 21:20:00,44.6,41.9,30.04,North,0,0.0,0.0,90,0.00,,,0.00,WUHU216HW,2013-02-28 05:20:00,
2013-02-27 21:25:00,44.6,41.9,30.05,North,0,0.0,0.0,90,0.00,,,0.00,WUHU216HW,2013-02-28 05:25:00,
2013-02-27 21:30:00,44.6,41.9,30.05,North,0,0.0,0.0,90,0.00,,,0.00,WUHU216HW,2013-02-28 05:30:00,
2013-02-27 21:35:00,44.6,41.9,30.05,North,0,0.0,0.0,90,0.00,,,0.00,WUHU216HW,2013-02-28 05:35:00,
2013-02-27 21:40:00,44.6,41.9,30.06,North,0,0.0,0.0,90,0.00,,,0.00,WUHU216HW,2013-02-28 05:40:00,
2013-02-27 21:45:00,44.6,41.9,30.06,North,0,0.0,0.0,90,0.00,,,0.00,WUHU216HW,2013-02-28 05:45:00,
2013-02-27 21:50:00,44.8,42.1,30.06,North,0,0.0,0.0,90,0.00,,,0.00,WUHU216HW,2013-02-28 05:50:00,
2013-02-27 21:55:00,45.0,42.3,30.06,North,0,0.0,0.0,90,0.00,,,0.00,WUHU216HW,2013-02-28 05:55:00,
2013-02-27 22:00:00,45.0,42.3,30.05,North,0,0.0,0.0,90,0.00,,,0.00,WUHU216HW,2013-02-28 06:00:00,
2013-02-27 22:05:00,44.8,42.4,30.05,North,0,0.0,0.0,91,0.00,,,0.00,WUHU216HW,2013-02-28 06:05:00,
2013-02-27 22:10:00,44.8,42.4,30.05,North,0,0.0,0.0,91,0.00,,,0.00,WUHU216HW,2013-02-28 06:10:00,
2013-02-27 22:15:00,44.6,42.2,30.05,North,0,0.0,0.0,91,0.00,,,0.00,WUHU216HW,2013-02-28 06:15:00,
2013-02-27 22:20:00,44.6,42.2,30.05,North,0,0.0,0.0,91,0.00,,,0.00,WUHU216HW,2013-02-28 06:20:00,
2013-02-27 22:25:00,44.6,42.2,30.05,North,0,0.0,0.0,91,0.00,,,0.00,WUHU216HW,2013-02-28 06:25:00,
2013-02-27 22:30:00,44.6,42.2,30.04,North,0,0.0,0.0,91,0.00,,,0.00,WUHU216HW,2013-02-28 06:30:00,
2013-02-27 22:35:00,44.5,41.8,30.04,North,0,0.0,0.0,90,0.00,,,0.00,WUHU216HW,2013-02-28 06:35:00,
2013-02-27 22:40:00,44.5,42.0,30.04,North,0,0.0,0.0,91,0.00,,,0.00,WUHU216HW,2013-02-28 06:40:00,
2013-02-27 22:45:00,44.3,42.1,30.04,North,0,0.0,0.0,92,0.00,,,0.00,WUHU216HW,2013-02-28 06:45:00,
2013-02-27 22:50:00,44.3,42.1,30.04,North,0,0.0,0.0,92,0.00,,,0.00,WUHU216HW,2013-02-28 06:50:00,
2013-02-27 22:55:00,44.3,42.4,30.03,North,0,0.0,0.0,93,0.00,,,0.00,WUHU216HW,2013-02-28 06:55:00,
2013-02-27 23:00:00,44.3,42.4,30.03,North,0,0.0,0.0,93,0.00,,,0.00,WUHU216HW,2013-02-28 07:00:00,
2013-02-27 23:05:00,44.1,42.2,30.03,North,0,0.0,0.0,93,0.00,,,0.00,WUHU216HW,2013-02-28 07:05:00,
2013-02-27 23:10:00,44.1,42.2,30.03,North,0,0.0,0.0,93,0.00,,,0.00,WUHU216HW,2013-02-28 07:10:00,
2013-02-27 23:15:00,43.9,42.0,30.02,North,0,0.0,0.0,93,0.00,,,0.00,WUHU216HW,2013-02-28 07:15:00,
2013-02-27 23:20:00,43.9,42.0,30.03,North,0,0.0,0.0,93,0.00,,,0.00,WUHU216HW,2013-02-28 07:20:00,
2013-02-27 23:25:00,43.9,42.0,30.02,North,0,0.0,0.0,93,0.00,,,0.00,WUHU216HW,2013-02-28 07:25:00,
2013-02-27 23:30:00,43.9,42.0,30.02,North,0,0.0,0.0,93,0.00,,,0.00,WUHU216HW,2013-02-28 07:30:00,
2013-02-27 23:35:00,43.9,42.0,30.02,North,0,0.0,0.0,93,0.00,,,0.00,WUHU216HW,2013-02-28 07:35:00,
2013-02-27 23:40:00,43.9,42.0,30.02,North,0,0.0,0.0,93,0.00,,,0.00,WUHU216HW,2013-02-28 07:40:00,
2013-02-27 23:45:00,43.7,41.9,30.01,North,0,0.0,0.0,93,0.00,,,0.00,WUHU216HW,2013-02-28 07:45:00,
2013-02-27 23:50:00,43.7,41.6,30.02,North,0,0.0,0.0,92,0.00,,,0.00,WUHU216HW,2013-02-28 07:50:00,
2013-02-27 23:55:00,43.6,41.4,30.02,North,0,0.0,0.0,92,0.00,,,0.00,WUHU216HW,2013-02-28 07:55:00,